Weather History for Joplin, MO

Change the Weather History Date:

Friday, January 18, 2013

  Actual Average Record
Temperature  
Mean Temperature 43 °F 35 °F  
Max Temperature 56 °F 45 °F 66 °F (1951)
Min Temperature 29 °F 25 °F -8 °F (1984)
Degree Days  
Heating Degree Days 22 30  
Month to date heating degree days 543 540  
Since 1 July heating degree days 2040 2157  
Cooling Degree Days 0 0  
Month to date cooling degree days 0 0  
Year to date cooling degree days 0 0  
Moisture  
Dew Point 26 °F    
Average Humidity 58    
Maximum Humidity 85    
Minimum Humidity 30    
Precipitation  
Precipitation 0.00 in 0.07 in 0.94 in (1996)
Month to date precipitation 0.86 1.20  
Year to date precipitation 0.86 1.20  
Sea Level Pressure  
Sea Level Pressure 30.33 in    
Wind  
Wind Speed 14 mph (South)    
Max Wind Speed 24 mph    
Max Gust Speed 49 mph    
Visibility 10 miles    
Events      
T = Trace of Precipitation, MM = Missing Value Source: NWS Daily Summary

Daily Weather History Graph

Daily Weather History Graph

Search for Another Location

Airport:

Trip Planner

Search our weather history database for the weather conditions in past years. The results will help you decide how hot, cold, wet, or windy it might be!

Date:

Astronomy

Jan. 18, 2013 Rise Set
Actual Time 7:29 AM CST 5:27 PM CST
Civil Twilight 7:01 AM CST 5:56 PM CST
Nautical Twilight 6:29 AM CST 6:28 PM CST
Astronomical Twilight 5:58 AM CST 6:59 PM CST
Moon 11:19 AM CST (1/18) 12:08 AM CST (1/18)
Length of Visible Light 10h 54m
Length of Day
9h 58m
Waxing Crescent, 47% of the Moon is Illuminated
Jan 18
Waxing Crescent
Jan 18
First Quarter
Jan 26
Full
Feb 3
Last Quarter
Feb 10
New

Hourly Weather History & Observations

Time (CST) Temp. Windchill Dew Point Humidity Pressure Visibility Wind Dir Wind Speed Gust Speed Precip Events Conditions
12:53 AM 28.9 °F 21.9 °F 25.0 °F 85% 30.49 in 10.0 mi SSE 6.9 mph - N/A   Clear
1:53 AM 30.9 °F 24.3 °F 25.0 °F 79% 30.50 in 10.0 mi SSE 6.9 mph - N/A   Clear
2:53 AM 30.0 °F 21.7 °F 25.0 °F 82% 30.49 in 10.0 mi SSE 9.2 mph - N/A   Clear
3:53 AM 33.1 °F 24.4 °F 26.1 °F 75% 30.47 in 10.0 mi SSE 11.5 mph - N/A   Clear
4:53 AM 32.0 °F 23.0 °F 26.1 °F 79% 30.45 in 10.0 mi SSE 11.5 mph - N/A   Clear
5:53 AM 33.1 °F 24.4 °F 26.1 °F 75% 30.43 in 10.0 mi SSE 11.5 mph - N/A   Clear
6:53 AM 33.1 °F 27.7 °F 25.0 °F 72% 30.43 in 10.0 mi South 5.8 mph - N/A   Clear
7:53 AM 34.0 °F 25.5 °F 26.1 °F 73% 30.43 in 10.0 mi South 11.5 mph - N/A   Clear
8:53 AM 39.0 °F 31.8 °F 27.0 °F 62% 30.43 in 10.0 mi South 11.5 mph - N/A   Clear
9:53 AM 44.1 °F 37.4 °F 28.0 °F 53% 30.43 in 10.0 mi South 13.8 mph - N/A   Clear
10:53 AM 48.0 °F - 28.9 °F 48% 30.41 in 10.0 mi SSW 23.0 mph 29.9 mph N/A   Clear
11:53 AM 51.1 °F - 28.9 °F 43% 30.36 in 10.0 mi SSW 17.3 mph - N/A   Clear
12:53 PM 54.0 °F - 28.9 °F 38% 30.32 in 10.0 mi SSW 17.3 mph 25.3 mph N/A   Clear
1:53 PM 55.9 °F - 27.0 °F 33% 30.27 in 10.0 mi South 19.6 mph 27.6 mph N/A   Clear
2:53 PM 55.9 °F - 25.0 °F 30% 30.26 in 10.0 mi SSW 18.4 mph 27.6 mph N/A   Clear
3:53 PM 55.9 °F - 24.1 °F 29% 30.23 in 10.0 mi SSW 15.0 mph 23.0 mph N/A   Clear
4:53 PM 53.1 °F - 24.1 °F 32% 30.22 in 10.0 mi SSW 16.1 mph - N/A   Clear
5:53 PM 48.9 °F - 26.1 °F 41% 30.22 in 10.0 mi West 13.8 mph 23.0 mph N/A   Clear
6:53 PM 46.9 °F - 27.0 °F 46% 30.21 in 10.0 mi SW 18.4 mph - N/A   Clear
7:53 PM 46.9 °F - 27.0 °F 46% 30.20 in 10.0 mi South 16.1 mph - N/A   Clear
8:53 PM 46.0 °F - 26.1 °F 46% 30.19 in 10.0 mi North - - N/A   Clear
9:53 PM 45.0 °F 37.6 °F 26.1 °F 48% 30.19 in 10.0 mi SSW 17.3 mph - N/A   Clear
10:53 PM 45.0 °F 37.9 °F 27.0 °F 49% 30.18 in 10.0 mi South 16.1 mph - N/A   Clear
11:53 PM 45.0 °F 37.4 °F 28.9 °F 53% 30.16 in 10.0 mi South 18.4 mph 26.5 mph N/A   Clear